User: anonymous
Location: Slidell
(30.2789°N, 89.7378°W)
Time: 10:51:53
(UTC-05:00)
Language:

Cosmos 2360 Rocket - Orbit

View from above orbital plane
View from above orbital plane
View from above satellite
View from above satellite

Ground track
Ground track

The orbit data is extracted from the following two-line orbital elements,

1 25407U 98045B   14203.82434380 -.00000224  00000-0 -90153-4 0  5152
2 25407 071.0123 109.5944 0007529 006.4829 049.5323 14.15664964826118
Epoch (UTC): 22 July 2014 19:47:03
Eccentricity: 0.0007529
inclination: 71.0123°
perigee height: 834 km
apogee height: 845 km
right ascension of ascending node: 109.5944°
argument of perigee: 6.4829°
revolutions per day: 14.15664964
mean anomaly at epoch: 49.5323°
orbit number at epoch: 82611

The dashed part of the orbit path shows where the satellite is in the earth's shadow,  

DLR